| time (UTC) | temp F | wind direction | speed knots | gust knots | rain 1hr in | rain 24hr in | rain mn in | humidity % | barometer mb |
| 20260505093021 | 50 | 285 | 0.0 | 0.0 | 0.00 | 0.00 | 0.00 | 89 | 1016.5 |
| 20260505092519 | 50 | 285 | 0.0 | 0.0 | 0.00 | 0.00 | 0.00 | 89 | 1016.4 |
| 20260505092020 | 50 | 285 | 0.0 | 0.0 | 0.00 | 0.00 | 0.00 | 89 | 1016.5 |
| 20260505091519 | 50 | 285 | 0.0 | 0.0 | 0.00 | 0.00 | 0.00 | 89 | 1016.5 |
| 20260505091018 | 50 | 285 | 0.0 | 0.0 | 0.00 | 0.00 | 0.00 | 89 | 1016.5 |
| 20260505090518 | 51 | 285 | 0.0 | 0.0 | 0.00 | 0.00 | 0.00 | 88 | 1016.4 |
| 20260505090018 | 51 | 285 | 0.0 | 0.0 | 0.00 | 0.00 | 0.00 | 88 | 1016.4 |
| 20260505085517 | 51 | 285 | 0.0 | 0.0 | 0.00 | 0.00 | 0.00 | 88 | 1016.5 |
| 20260505085016 | 51 | 285 | 0.0 | 0.0 | 0.00 | 0.00 | 0.00 | 88 | 1016.4 |
| 20260505084516 | 51 | 285 | 0.0 | 0.0 | 0.00 | 0.00 | 0.00 | 87 | 1016.4 |
| 20260505084014 | 51 | 285 | 0.0 | 0.0 | 0.00 | 0.00 | 0.00 | 87 | 1016.5 |
| 20260505083517 | 51 | 285 | 0.0 | 0.0 | 0.00 | 0.00 | 0.00 | 87 | 1016.4 |
| 20260505083013 | 52 | 285 | 0.0 | 0.0 | 0.00 | 0.00 | 0.00 | 87 | 1016.3 |
| 20260505082515 | 52 | 285 | 0.0 | 0.0 | 0.00 | 0.00 | 0.00 | 87 | 1016.4 |
| 20260505082012 | 52 | 285 | 0.0 | 0.0 | 0.00 | 0.00 | 0.00 | 86 | 1016.4 |
| 20260505081518 | 52 | 285 | 0.0 | 0.0 | 0.00 | 0.00 | 0.00 | 86 | 1016.4 |
| 20260505081012 | 52 | 285 | 0.0 | 0.0 | 0.00 | 0.00 | 0.00 | 85 | 1016.4 |
| 20260505080517 | 52 | 285 | 0.0 | 0.0 | 0.00 | 0.00 | 0.00 | 85 | 1016.4 |
| 20260505080015 | 52 | 285 | 0.0 | 0.0 | 0.00 | 0.00 | 0.00 | 85 | 1016.4 |
| 20260505075510 | 53 | 285 | 0.0 | 0.0 | 0.00 | 0.00 | 0.00 | 85 | 1016.4 |
| 20260505075009 | 53 | 285 | 0.0 | 0.0 | 0.00 | 0.00 | 0.00 | 85 | 1016.3 |
| 20260505074509 | 53 | 285 | 0.0 | 0.0 | 0.00 | 0.00 | 0.00 | 84 | 1016.3 |
| 20260505074009 | 53 | 285 | 0.0 | 0.0 | 0.00 | 0.00 | 0.00 | 84 | 1016.3 |
| 20260505073511 | 53 | 285 | 0.0 | 0.0 | 0.00 | 0.00 | 0.00 | 84 | 1016.4 |
| 20260505073007 | 53 | 285 | 0.0 | 0.0 | 0.00 | 0.00 | 0.00 | 84 | 1016.3 |
| 20260505072507 | 53 | 285 | 0.0 | 0.0 | 0.00 | 0.00 | 0.00 | 85 | 1016.3 |
| 20260505072007 | 54 | 285 | 0.0 | 0.0 | 0.00 | 0.00 | 0.00 | 85 | 1016.3 |
| 20260505071506 | 54 | 285 | 0.0 | 0.0 | 0.00 | 0.00 | 0.00 | 85 | 1016.3 |
| 20260505071005 | 54 | 285 | 0.0 | 0.0 | 0.00 | 0.00 | 0.00 | 84 | 1016.3 |
| 20260505070505 | 54 | 285 | 0.0 | 0.0 | 0.00 | 0.00 | 0.00 | 84 | 1016.2 |
| 20260505070006 | 54 | 285 | 0.0 | 1.7 | 0.00 | 0.00 | 0.00 | 83 | 1016.2 |
| 20260505065505 | 54 | 285 | 0.0 | 1.7 | 0.00 | 0.00 | 0.00 | 83 | 1016.2 |
| 20260505065004 | 54 | 285 | 0.0 | 0.0 | 0.00 | 0.00 | 0.00 | 84 | 1016.2 |
| 20260505064504 | 54 | 285 | 0.0 | 0.0 | 0.00 | 0.00 | 0.00 | 83 | 1016.2 |
| 20260505064007 | 54 | 285 | 0.0 | 0.0 | 0.00 | 0.00 | 0.00 | 83 | 1016.2 |
| 20260505063503 | 54 | 285 | 0.0 | 0.0 | 0.00 | 0.00 | 0.00 | 83 | 1016.3 |
| 20260505063003 | 54 | 285 | 0.0 | 0.0 | 0.00 | 0.00 | 0.00 | 83 | 1016.4 |
| 20260505062503 | 54 | 285 | 0.0 | 0.0 | 0.00 | 0.00 | 0.00 | 83 | 1016.4 |
| 20260505062003 | 54 | 285 | 0.0 | 0.9 | 0.00 | 0.00 | 0.00 | 83 | 1016.4 |
| 20260505061502 | 54 | 285 | 0.0 | 0.9 | 0.00 | 0.00 | 0.00 | 84 | 1016.4 |
| 20260505061001 | 54 | 285 | 0.0 | 0.9 | 0.00 | 0.00 | 0.00 | 83 | 1016.4 |
| 20260505060501 | 54 | 285 | 0.0 | 0.0 | 0.00 | 0.00 | 0.00 | 83 | 1016.5 |
| 20260505060002 | 54 | 285 | 0.0 | 0.0 | 0.00 | 0.00 | 0.00 | 81 | 1016.5 |
| 20260505055600 | 54 | 284 | 0.0 | 0.0 | 0.00 | 0.00 | 0.00 | 81 | 1016.5 |
| 20260505055106 | 54 | 284 | 0.0 | 0.0 | 0.00 | 0.00 | 0.00 | 81 | 1016.5 |
| 20260505054604 | 55 | 284 | 0.0 | 0.0 | 0.00 | 0.00 | 0.00 | 81 | 1016.5 |
| 20260505054100 | 55 | 284 | 0.0 | 0.0 | 0.00 | 0.00 | 0.00 | 81 | 1016.5 |
| 20260505053559 | 55 | 284 | 0.0 | 0.0 | 0.00 | 0.00 | 0.00 | 80 | 1016.5 |
| 20260505053059 | 55 | 284 | 0.0 | 0.0 | 0.00 | 0.00 | 0.00 | 80 | 1016.5 |
| 20260505052558 | 55 | 284 | 0.0 | 0.0 | 0.00 | 0.00 | 0.00 | 79 | 1016.5 |
| 20260505052058 | 56 | 284 | 0.0 | 0.0 | 0.00 | 0.00 | 0.00 | 78 | 1016.5 |
| 20260505051558 | 56 | 284 | 0.0 | 0.0 | 0.00 | 0.00 | 0.00 | 77 | 1016.6 |
| 20260505051058 | 56 | 284 | 0.0 | 0.0 | 0.00 | 0.00 | 0.00 | 77 | 1016.5 |
| 20260505050558 | 56 | 284 | 0.0 | 0.0 | 0.00 | 0.00 | 0.00 | 76 | 1016.6 |
| 20260505041556 | 55 | 251 | 0.0 | 1.7 | 0.00 | 0.00 | 0.00 | 79 | 1016.7 |
| 20260505041049 | 54 | 309 | 0.0 | 0.9 | 0.00 | 0.00 | 0.00 | 79 | 1016.8 |
| 20260505040548 | 54 | 309 | 0.0 | 1.7 | 0.00 | 0.00 | 0.00 | 80 | 1016.8 |
| 20260505040056 | 54 | 244 | 0.0 | 1.7 | 0.00 | 0.00 | 0.00 | 80 | 1016.8 |
| 20260505035546 | 54 | 244 | 0.0 | 1.7 | 0.00 | 0.00 | 0.00 | 80 | 1016.8 |
| 20260505035046 | 54 | 243 | 0.0 | 1.7 | 0.00 | 0.00 | 0.00 | 80 | 1016.8 |
| 20260505034606 | 54 | 286 | 0.0 | 0.0 | 0.00 | 0.00 | 0.00 | 80 | 1016.8 |
| 20260505034046 | 54 | 286 | 0.0 | 0.0 | 0.00 | 0.00 | 0.00 | 80 | 1016.7 |
| 20260505033546 | 54 | 286 | 0.0 | 0.0 | 0.00 | 0.00 | 0.00 | 79 | 1016.8 |
| 20260505033045 | 54 | 286 | 0.0 | 0.0 | 0.00 | 0.00 | 0.00 | 79 | 1016.8 |
| 20260505032545 | 54 | 285 | 0.0 | 0.0 | 0.00 | 0.00 | 0.00 | 78 | 1016.7 |
| 20260505032045 | 54 | 286 | 0.0 | 0.0 | 0.00 | 0.00 | 0.00 | 76 | 1016.7 |
| 20260505031546 | 55 | 286 | 0.0 | 0.0 | 0.00 | 0.00 | 0.00 | 77 | 1016.7 |
| 20260505031045 | 55 | 285 | 0.0 | 0.0 | 0.00 | 0.00 | 0.00 | 76 | 1016.6 |
| 20260505030550 | 55 | 286 | 0.0 | 0.0 | 0.00 | 0.00 | 0.00 | 76 | 1016.7 |
| 20260505030049 | 55 | 285 | 0.0 | 0.0 | 0.00 | 0.00 | 0.00 | 75 | 1016.7 |
| 20260505025545 | 55 | 286 | 0.0 | 0.0 | 0.00 | 0.00 | 0.00 | 75 | 1016.7 |
| 20260505025045 | 56 | 286 | 0.0 | 0.0 | 0.00 | 0.00 | 0.00 | 75 | 1016.7 |
| 20260505024545 | 56 | 286 | 0.0 | 0.0 | 0.00 | 0.00 | 0.00 | 73 | 1016.6 |
| 20260505024044 | 56 | 286 | 0.0 | 0.0 | 0.00 | 0.00 | 0.00 | 73 | 1016.6 |
| 20260505023544 | 56 | 286 | 0.0 | 0.0 | 0.00 | 0.00 | 0.00 | 73 | 1016.6 |
| 20260505023045 | 57 | 286 | 0.0 | 0.0 | 0.00 | 0.00 | 0.00 | 71 | 1016.6 |
| 20260505022543 | 57 | 286 | 0.0 | 0.0 | 0.00 | 0.00 | 0.00 | 71 | 1016.5 |
| 20260505022043 | 57 | 286 | 0.0 | 0.0 | 0.00 | 0.00 | 0.00 | 70 | 1016.6 |
| 20260505021543 | 57 | 286 | 0.0 | 0.0 | 0.00 | 0.00 | 0.00 | 69 | 1016.4 |
| 20260505021042 | 58 | 286 | 0.0 | 0.0 | 0.00 | 0.00 | 0.00 | 69 | 1016.3 |
| 20260505020542 | 58 | 286 | 0.0 | 0.0 | 0.00 | 0.00 | 0.00 | 70 | 1016.2 |
| 20260505020054 | 58 | 286 | 0.0 | 0.0 | 0.00 | 0.00 | 0.00 | 70 | 1016.3 |
| 20260505015542 | 58 | 286 | 0.0 | 0.0 | 0.00 | 0.00 | 0.00 | 69 | 1016.3 |
| 20260505015042 | 59 | 286 | 0.0 | 0.0 | 0.00 | 0.00 | 0.00 | 69 | 1016.1 |
| 20260505014543 | 59 | 286 | 0.0 | 0.0 | 0.00 | 0.00 | 0.00 | 66 | 1016.1 |
| 20260505014041 | 59 | 286 | 0.0 | 0.0 | 0.00 | 0.00 | 0.00 | 66 | 1016.0 |
| 20260505013544 | 60 | 285 | 0.0 | 0.0 | 0.00 | 0.00 | 0.00 | 66 | 1016.0 |
| 20260505013042 | 60 | 286 | 0.0 | 0.0 | 0.00 | 0.00 | 0.00 | 63 | 1015.9 |
| 20260505012544 | 61 | 286 | 0.0 | 0.0 | 0.00 | 0.00 | 0.00 | 63 | 1015.8 |
| 20260505012042 | 61 | 286 | 0.0 | 0.0 | 0.00 | 0.00 | 0.00 | 59 | 1015.7 |
| 20260505011540 | 62 | 286 | 0.0 | 0.0 | 0.00 | 0.00 | 0.00 | 60 | 1015.6 |
| 20260505011043 | 62 | 285 | 0.0 | 0.0 | 0.00 | 0.00 | 0.00 | 60 | 1015.6 |
| 20260505010539 | 63 | 286 | 0.0 | 0.0 | 0.00 | 0.00 | 0.00 | 60 | 1015.6 |
| 20260505010050 | 63 | 286 | 0.0 | 0.0 | 0.00 | 0.00 | 0.00 | 56 | 1015.4 |
| 20260505005539 | 64 | 286 | 0.0 | 0.0 | 0.00 | 0.00 | 0.00 | 55 | 1015.4 |
| 20260505005040 | 64 | 286 | 0.0 | 0.0 | 0.00 | 0.00 | 0.00 | 55 | 1015.4 |
| 20260505004557 | 65 | 286 | 0.0 | 0.0 | 0.00 | 0.00 | 0.00 | 54 | 1015.4 |
| 20260505004041 | 65 | 286 | 0.0 | 0.0 | 0.00 | 0.00 | 0.00 | 54 | 1015.3 |
| 20260505003539 | 66 | 286 | 0.0 | 0.0 | 0.00 | 0.00 | 0.00 | 53 | 1015.4 |
| 20260505003039 | 66 | 286 | 0.0 | 0.0 | 0.00 | 0.00 | 0.00 | 54 | 1015.2 |
| 20260505002538 | 67 | 286 | 0.0 | 0.0 | 0.00 | 0.00 | 0.00 | 55 | 1015.2 |
| 20260505002042 | 68 | 286 | 0.0 | 0.0 | 0.00 | 0.00 | 0.00 | 49 | 1015.1 |
| 20260505001541 | 68 | 286 | 0.0 | 0.0 | 0.00 | 0.00 | 0.00 | 49 | 1015.1 |
| 20260505001039 | 68 | 286 | 0.0 | 0.0 | 0.00 | 0.00 | 0.00 | 47 | 1015.2 |
| 20260505000537 | 69 | 286 | 0.0 | 0.0 | 0.00 | 0.00 | 0.00 | 46 | 1015.2 |
| 20260505000038 | 69 | 286 | 0.0 | 0.0 | 0.00 | 0.00 | 0.00 | 48 | 1015.1 |
| 20260504235537 | 70 | 286 | 0.0 | 0.0 | 0.00 | 0.00 | 0.00 | 48 | 1015.1 |
| 20260504235037 | 70 | 286 | 0.0 | 0.0 | 0.00 | 0.00 | 0.00 | 46 | 1015.0 |
| 20260504234537 | 71 | 285 | 0.0 | 0.9 | 0.00 | 0.00 | 0.00 | 46 | 1015.0 |
| 20260504234036 | 72 | 286 | 0.0 | 0.9 | 0.00 | 0.00 | 0.00 | 45 | 1014.9 |
| 20260504233536 | 72 | 285 | 0.0 | 3.5 | 0.00 | 0.00 | 0.00 | 47 | 1014.9 |
| 20260504233036 | 73 | 291 | 0.0 | 3.5 | 0.00 | 0.00 | 0.00 | 43 | 1014.8 |
| 20260504232536 | 73 | 291 | 0.0 | 1.7 | 0.00 | 0.00 | 0.00 | 41 | 1014.8 |
| 20260504232035 | 73 | 288 | 0.0 | 2.6 | 0.00 | 0.00 | 0.00 | 42 | 1014.7 |
| 20260504231540 | 74 | 288 | 0.0 | 2.6 | 0.00 | 0.00 | 0.00 | 40 | 1014.7 |
| 20260504231036 | 74 | 84 | 0.0 | 2.6 | 0.00 | 0.00 | 0.00 | 44 | 1014.6 |
| 20260504230534 | 74 | 85 | 0.9 | 3.5 | 0.00 | 0.00 | 0.00 | 37 | 1014.7 |
| 20260504230036 | 74 | 252 | 0.0 | 3.5 | 0.00 | 0.00 | 0.00 | 41 | 1014.6 |
| 20260504225534 | 75 | 315 | 0.0 | 7.0 | 0.00 | 0.00 | 0.00 | 39 | 1014.6 |
| 20260504225033 | 75 | 257 | 0.9 | 7.0 | 0.00 | 0.00 | 0.00 | 38 | 1014.6 |
| 20260504224539 | 75 | 288 | 0.0 | 6.1 | 0.00 | 0.00 | 0.00 | 40 | 1014.6 |
| 20260504224037 | 75 | 262 | 0.9 | 6.1 | 0.00 | 0.00 | 0.00 | 37 | 1014.6 |
| 20260504223533 | 75 | 355 | 0.0 | 2.6 | 0.00 | 0.00 | 0.00 | 37 | 1014.7 |
| 20260504223032 | 76 | 290 | 0.9 | 5.2 | 0.00 | 0.00 | 0.00 | 31 | 1014.6 |
| 20260504222532 | 76 | 252 | 0.9 | 5.2 | 0.00 | 0.00 | 0.00 | 34 | 1014.6 |
| 20260504222035 | 76 | 290 | 0.0 | 2.6 | 0.00 | 0.00 | 0.00 | 35 | 1014.6 |
| 20260504221538 | 76 | 311 | 0.0 | 2.6 | 0.00 | 0.00 | 0.00 | 35 | 1014.6 |
| 20260504221031 | 77 | 326 | 0.9 | 7.0 | 0.00 | 0.00 | 0.00 | 32 | 1014.5 |
| 20260504220531 | 77 | 262 | 1.7 | 7.0 | 0.00 | 0.00 | 0.00 | 32 | 1014.6 |
| 20260504220031 | 77 | 322 | 0.0 | 8.7 | 0.00 | 0.00 | 0.00 | 35 | 1014.6 |
| 20260504215531 | 78 | 271 | 2.6 | 8.7 | 0.00 | 0.00 | 0.00 | 33 | 1014.6 |
| 20260504215031 | 78 | 271 | 0.9 | 7.8 | 0.00 | 0.00 | 0.00 | 33 | 1014.5 |
| 20260504214530 | 79 | 250 | 0.9 | 2.6 | 0.00 | 0.00 | 0.00 | 35 | 1014.6 |
| 20260504214029 | 80 | 298 | 0.9 | 7.8 | 0.00 | 0.00 | 0.00 | 34 | 1014.6 |
| 20260504213529 | 80 | 137 | 0.9 | 7.8 | 0.00 | 0.00 | 0.00 | 33 | 1014.5 |
| 20260504213037 | 80 | 331 | 0.0 | 4.3 | 0.00 | 0.00 | 0.00 | 29 | 1014.5 |
| 20260504212528 | 80 | 242 | 1.7 | 5.2 | 0.00 | 0.00 | 0.00 | 32 | 1014.6 |
| 20260504212027 | 80 | 99 | 0.0 | 7.8 | 0.00 | 0.00 | 0.00 | 32 | 1014.6 |
| 20260504211533 | 80 | 270 | 0.9 | 7.0 | 0.00 | 0.00 | 0.00 | 28 | 1014.6 |
| 20260504211026 | 80 | 83 | 1.7 | 7.0 | 0.00 | 0.00 | 0.00 | 32 | 1014.6 |
| 20260504210526 | 80 | 265 | 0.9 | 7.0 | 0.00 | 0.00 | 0.00 | 30 | 1014.7 |
| 20260504210026 | 81 | 253 | 1.7 | 7.0 | 0.00 | 0.00 | 0.00 | 27 | 1014.7 |
| 20260504205526 | 81 | 240 | 0.0 | 3.5 | 0.00 | 0.00 | 0.00 | 35 | 1014.8 |
| 20260504205029 | 81 | 315 | 0.9 | 7.8 | 0.00 | 0.00 | 0.00 | 27 | 1014.9 |
| 20260504204523 | 81 | 323 | 1.7 | 7.8 | 0.00 | 0.00 | 0.00 | 29 | 1014.9 |
| 20260504204023 | 81 | 237 | 0.9 | 5.2 | 0.00 | 0.00 | 0.00 | 28 | 1015.0 |
| 20260504203522 | 81 | 273 | 0.9 | 5.2 | 0.00 | 0.00 | 0.00 | 33 | 1015.0 |
| 20260504203021 | 81 | 214 | 0.9 | 4.3 | 0.00 | 0.00 | 0.00 | 34 | 1015.1 |
| 20260504202521 | 81 | 325 | 1.7 | 4.3 | 0.00 | 0.00 | 0.00 | 28 | 1015.2 |
| 20260504202019 | 80 | 311 | 0.9 | 4.3 | 0.00 | 0.00 | 0.00 | 31 | 1015.2 |
| 20260504201519 | 80 | 250 | 0.9 | 10.4 | 0.00 | 0.00 | 0.00 | 31 | 1015.2 |
| 20260504201017 | 80 | 277 | 2.6 | 10.4 | 0.00 | 0.00 | 0.00 | 31 | 1015.2 |
| 20260504200517 | 80 | 85 | 0.0 | 7.0 | 0.00 | 0.00 | 0.00 | 35 | 1015.2 |
| 20260504200017 | 80 | 283 | 1.7 | 7.0 | 0.00 | 0.00 | 0.00 | 31 | 1015.2 |
| 20260504195516 | 80 | 261 | 1.7 | 7.0 | 0.00 | 0.00 | 0.00 | 31 | 1015.2 |
| 20260504195015 | 79 | 237 | 1.7 | 6.1 | 0.00 | 0.00 | 0.00 | 34 | 1015.2 |
| 20260504194518 | 79 | 266 | 0.9 | 4.3 | 0.00 | 0.00 | 0.00 | 36 | 1015.3 |
| 20260504194013 | 79 | 229 | 1.7 | 7.0 | 0.00 | 0.00 | 0.00 | 31 | 1015.9 |
| 20260504193513 | 79 | 215 | 2.6 | 7.0 | 0.00 | 0.00 | 0.00 | 32 | 1015.4 |
| 20260504193016 | 79 | 267 | 0.9 | 7.0 | 0.00 | 0.00 | 0.00 | 35 | 1015.5 |
| 20260504192510 | 79 | 269 | 2.6 | 7.0 | 0.00 | 0.00 | 0.00 | 36 | 1015.6 |
| 20260504192009 | 79 | 146 | 0.0 | 3.5 | 0.00 | 0.00 | 0.00 | 36 | 1015.7 |
| 20260504191509 | 79 | 274 | 1.7 | 3.5 | 0.00 | 0.00 | 0.00 | 33 | 1015.7 |
| 20260504191009 | 79 | 247 | 0.9 | 3.5 | 0.00 | 0.00 | 0.00 | 36 | 1015.8 |
| 20260504190509 | 78 | 303 | 1.7 | 3.5 | 0.00 | 0.00 | 0.00 | 34 | 1015.9 |
| 20260504190007 | 78 | 238 | 0.0 | 6.1 | 0.00 | 0.00 | 0.00 | 37 | 1016.0 |
| 20260504185505 | 78 | 218 | 0.9 | 6.1 | 0.00 | 0.00 | 0.00 | 37 | 1016.1 |
| 20260504185007 | 78 | 217 | 1.7 | 4.3 | 0.00 | 0.00 | 0.00 | 36 | 1016.1 |
| 20260504184515 | 78 | 9 | 0.0 | 7.0 | 0.00 | 0.00 | 0.00 | 35 | 1016.2 |
| 20260504184008 | 77 | 79 | 0.9 | 2.6 | 0.00 | 0.00 | 0.00 | 38 | 1016.3 |
| 20260504183503 | 77 | 80 | 0.0 | 3.5 | 0.00 | 0.00 | 0.00 | 34 | 1016.5 |
| 20260504183003 | 77 | 257 | 0.9 | 5.2 | 0.00 | 0.00 | 0.00 | 36 | 1016.4 |
| 20260504182505 | 78 | 265 | 1.7 | 5.2 | 0.00 | 0.00 | 0.00 | 35 | 1016.7 |
| 20260504182002 | 77 | 34 | 0.9 | 3.5 | 0.00 | 0.00 | 0.00 | 38 | 1016.7 |
| 20260504181501 | 77 | 30 | 0.9 | 7.0 | 0.00 | 0.00 | 0.00 | 37 | 1016.7 |
| 20260504181002 | 77 | 260 | 2.6 | 7.0 | 0.00 | 0.00 | 0.00 | 38 | 1016.8 |
| 20260504180501 | 78 | 257 | 0.9 | 3.5 | 0.00 | 0.00 | 0.00 | 40 | 1016.7 |
| 20260504180101 | 77 | 12 | 0.9 | 5.2 | 0.00 | 0.00 | 0.00 | 36 | 1016.7 |
| 20260504175600 | 77 | 267 | 1.7 | 5.2 | 0.00 | 0.00 | 0.00 | 33 | 1016.7 |
| 20260504175058 | 78 | 16 | 0.0 | 3.5 | 0.00 | 0.00 | 0.00 | 46 | 1016.8 |
| 20260504174558 | 76 | 131 | 0.9 | 2.6 | 0.00 | 0.00 | 0.00 | 40 | 1016.9 |
| 20260504174057 | 76 | 198 | 0.9 | 3.5 | 0.00 | 0.00 | 0.00 | 40 | 1016.8 |
| 20260504173558 | 75 | 234 | 0.0 | 4.3 | 0.00 | 0.00 | 0.00 | 37 | 1016.8 |
| 20260504173054 | 74 | 241 | 1.7 | 6.1 | 0.00 | 0.00 | 0.00 | 39 | 1016.8 |
| 20260504172553 | 75 | 274 | 1.7 | 3.5 | 0.00 | 0.00 | 0.00 | 44 | 1016.9 |
| 20260504172059 | 74 | 333 | 0.9 | 3.5 | 0.00 | 0.00 | 0.00 | 40 | 1017.0 |
| 20260504171553 | 74 | 47 | 1.7 | 3.5 | 0.00 | 0.00 | 0.00 | 39 | 1016.9 |
| 20260504171053 | 73 | 27 | 0.9 | 7.0 | 0.00 | 0.00 | 0.00 | 43 | 1017.0 |
| 20260504170551 | 73 | 279 | 0.9 | 7.0 | 0.00 | 0.00 | 0.00 | 38 | 1017.2 |
| 20260504151032 | 70 | 300 | 1.7 | 6.1 | 0.00 | 0.00 | 0.00 | 49 | 1018.4 |
| 20260504150533 | 70 | 278 | 0.0 | 4.3 | 0.00 | 0.00 | 0.00 | 54 | 1018.5 |
| 20260504141020 | 64 | 236 | 0.0 | 2.6 | 0.00 | 0.00 | 0.00 | 63 | 1018.8 |
| 20260504140513 | 64 | 249 | 0.0 | 2.6 | 0.00 | 0.00 | 0.00 | 65 | 1018.8 |
| 20260504130556 | 51 | 215 | 0.0 | 1.7 | 0.00 | 0.00 | 0.00 | 93 | 1018.6 |
| 20260504110542 | 42 | 223 | 0.0 | 0.0 | 0.00 | 0.00 | 0.00 | 94 | 1018.3 |
| 20260504100536 | 42 | 223 | 0.0 | 0.0 | 0.00 | 0.00 | 0.00 | 93 | 1018.4 |